Regional Weather Roundup
Issued by NWS New Orleans/Baton Rouge, LA

Home | Current Version | Previous Version | Text Only | Print | Product List | Glossary On
Versions: 1 2 3 4 5 6 7 8 9 10 11 12 13 14 15 16 17 18 19 20 21 22 23 24 25 26 27 28 29 30 31 32 33 34 35 36 37 38 39 40 41 42 43 44 45 46 47 48 49 50
364
ASUS44 KLIX 221905
RWRLIX
NEW ORLEANS REGIONAL WEATHER ROUNDUP
NATIONAL WEATHER SERVICE NEW ORLEANS LA
100 PM CST SAT NOV 22 2014

NOTE: "FAIR" INDICATES FEW OR NO CLOUDS BELOW 12,000 FEET WITH NO
      SIGNIFICANT WEATHER AND/OR OBSTRUCTIONS TO VISIBILITY.
      SKY/WX - SKY CONDITION AND SIGNIFICANT WEATHER.
      TMP - AIR TEMPERATURE.     DP    - DEWPOINT TEMPERATURE.
      RH  - RELATIVE HUMIDITY.   PRES  - PRESSURE.
      HI  - HEAT INDEX.          WCI   - WIND CHILL INDEX.

*  THESE STATIONS ARE NOT NWS OR FAA STATIONS AND ARE NOT UNDER
   NWS QUALITY CONTROL.

LAZ038-040-048-061>063-065>067-069-222000-
SOUTHEAST LOUISIANA

CITY           SKY/WX    TMP DP  RH WIND       PRES   REMARKS
N.O. AUDUBON   NOT AVBL
N.O. INTL ARPT CLOUDY    67  58  72 E10       30.07F
N.O. LAKEFRONT CLOUDY    64  57  78 E18G24    30.08F
N.O. DOWNTOWN*   N/A     66  55  68 E12       30.09F
SLIDELL        CLOUDY    66  57  72 E9        30.11F
BATON ROUGE    CLOUDY    67  58  72 E16       30.08F
BOOTHVILLE     CLOUDY    67  63  87 E10       30.10F
BELLE CHASSE   CLOUDY    68  59  73 E17G24    30.07F
BOGALUSA*        N/A     71  54  54 SE9       30.13F
NEW ROADS*     NOT AVBL
GONZALES*        N/A     66  59  78 NE7       30.06F
HAMMOND*       NOT AVBL
HOUMA*         MOSUNNY   70  63  78 E17       30.05F
PORT FOURCHON* CLEAR     70  64  83 E14       30.08F

$$

MSZ070-080>082-222000-
SOUTHERN MISSISSIPPI

CITY           SKY/WX    TMP DP  RH WIND       PRES   REMARKS
MCCOMB         CLOUDY    67  53  61 SE10      30.11F
GULFPORT       CLOUDY    65  56  72 E14G23    30.13F
BILOXI         CLOUDY    67  57  70 E13G25    30.13F
PASCAGOULA     CLOUDY    67  56  67 E15       30.15F
STENNIS ARPT*  PTSUNNY   64  52  63 E7G16     30.17S

$$

COASTAL OBSERVATIONS
LAKE AND NEARSHORE STATIONS

STATION/POSITION TIME  TEMP    WIND        PRES    WAVE
                       AIR SEA DIR/SP/G            HT/PER
                 (UTC) (F)     (DEG/KT/KT) (MB)    (FT/S)
PASCAGOULA       1900   64      70/ 16/ 21 1020.5
WAVELAND YACHT   1900   60     100/ 15/ 18 1019.2
GRAND ISLE       1900   66 61   90/  8/ 13 1018.4
SOUTHWEST PASS   1900   71 71              1019.2
NEW CANAL        1900   65 55   90/  2/  7 1019.2
SHELL BEACH      1900   64 52   90/ 16/ 18 1019.0

OFFSHORE STATIONS

STATION/POSITION TIME  TEMP    WIND        PRES    WAVE
                       AIR SEA DIR/SP/G            HT/PER
                 (UTC) (F)     (DEG/KT/KT) (MB)    (FT/S)
64 S DAUPHIN ISL 1816   70 73   90/ 17/ 21 1020.1    6/ 8

$$




USA.gov is the U.S. government's official web portal to all federal, state and local government web resources and services.